Location: Unspecified
(0.0000°N, 0.0000°E)
Time: 22:20:46
(UTC+01:00)

AO-40 - Visible Passes

Search period start: 17 January 2017 00:00
Search period end: 27 January 2017 00:00
Orbit: 1014 x 58806 km, 6.5° (Epoch: 15 January)

Date Brightness Start Highest point End Pass type
(mag) Time Alt. Az. Time Alt. Az. Time Alt. Az.
17 Jan ? 22:10:04 10° E 04:03:05 63° ESE 05:38:21 10° E visible
19 Jan ? 02:04:05 10° W 03:24:20 30° W 06:24:46 10° W visible
19 Jan ? 20:33:00 10° W 20:53:17 87° N 08:04:33 10° W visible
20 Jan ? 20:29:34 10° E 03:02:58 83° S 10:25:06 10° E daylight
21 Jan ? 22:01:50 10° E 03:34:48 59° ESE 05:09:34 10° E visible
23 Jan ? 01:32:52 10° W 02:56:37 34° W 06:19:03 10° W visible
23 Jan ? 20:05:13 10° W 20:23:11 86° N 07:55:56 10° W visible
24 Jan ? 20:22:05 10° E 02:54:40 83° S 09:57:26 10° E daylight
25 Jan ? 21:53:47 10° E 03:06:35 55° ESE 04:40:37 10° E visible
